Hourly Data Report for June 10, 2021

SWAN RIVER RCS
MANITOBA
Current Station Operator: ECCC - MSC

52°06'53.900" N
101°13'58.500" W
334.80 m
504K80K
71443
WEQ

Download Data

Hourly Data (June 2021)
Hourly Data Report for June 10, 2021
TIME
LST
Temp Definition
°C
Dew Point Definition
°C
Rel Hum Definition
%
Precip. Amount Definition
mm

Wind Dir Definition
10's deg

Wind Spd Definition
km/h
Visibility Definition
km
Stn Press Definition
kPa
Hmdx Definition


Wind Chill Definition


Weather Definition


00:00 13.7 12.3 92 0.0 7 6   97.81     LegendNANA
01:00 12.3 11.4 94 0.0 5 4   97.78     LegendNANA
02:00 11.8 11.4 97 0.0 6 3   97.81     LegendNANA
03:00 11.6 11.3 98 0.0 8 6   97.77     LegendNANA
04:00 10.9 10.6 98 0.0 5 7   97.75     LegendNANA
05:00 11.2 11.1 99 0.0 3 9   97.78     LegendNANA
06:00 12.7 12.6 100 0.0 6 7   97.82     LegendNANA
07:00 13.7 13.6 99 0.0 4 15   97.78     LegendNANA
08:00 13.7 13.3 98 0.0 5 17   97.79     LegendNANA
09:00 13.8 13.5 98 0.1 7 14   97.74     LegendNANA
10:00 14.6 14.1 97 0.0 6 16   97.74     LegendNANA
11:00 14.3 13.2 93 0.0 5 17   97.79     LegendNANA
12:00 14.6 13.4 93 0.0 7 19   97.71     LegendNANA
13:00 15.5 13.4 87 0.0 8 20   97.49     LegendNANA
14:00 15.3 13.0 86 0.0 8 17   97.32     LegendNANA
15:00 16.1 13.1 82 0.0 6 21   97.29     LegendNANA
16:00 16.2 13.2 83 0.0 7 27   97.15     LegendNANA
17:00 17.0 13.2 79 0.0 8 18   97.14     LegendNANA
18:00 16.4 13.5 83 0.0 7 20   97.12     LegendNANA
19:00 16.5 13.5 82 0.0 9 23   97.03     LegendNANA
20:00 16.7 13.6 82 0.0 9 17   97.06     LegendNANA
21:00 15.8 14.0 89 0.0 7 17   96.98     LegendNANA
22:00 15.0 14.2 95 0.0 7 12   97.09     LegendNANA
23:00 14.7 14.4 98 0.2 6 24   96.89     LegendNANA

Notes on Data Quality.

Legend

  • E = Estimated
  • M = Missing
  • NA = Not Available*
  • [empty] = Indicates an unobserved value
Date modified: